"startDT [UTC]","vpos","CH4 [ppm]","stdev(CH4) [ppm]","CO2 [ppm]","stdev(CO2) [ppm]","H2O_reported [%]","stdev(H2O_reported)","CavityPressure [torr]","CavityTemp [C]","OutletValve","CH4_dry [ppm]","CO2_dry [ppm]","DasTemp [C]","EtalonTemp [C]","WarmBoxTemp [C]","MPVPosition","T_ECpre [C]","T_EC1 [C]","T_EC2 [C]","p_inlet [hPa]","p_in [hPa]","p_out [hPa]","T_inlet [C]","RH_inlet [%]","dwpt_inlet [C]","T_vent [C]","RH_vent [%]","dwpt_vent [C]","flow_vent [l min-1]","flow_inlet [l min-1]","dwpt_sample [C]","T_room [C]"
2015-06-09 00:36:00,0.0,,,,,,,,,,,,,,,,,,0.11,-272.68,-272.74,2,1005,6,16.8,39.4,2.9,16.8,39.2,2.8,5.73,1.97,-5.6,15.7
2015-06-09 00:37:00,0.0,,,,,,,,,,,,,,,,,,0.11,-272.70,-272.76,2,1006,6,16.9,39.1,2.9,16.9,39.5,3.0,5.73,1.91,-5.6,15.9
2015-06-09 00:38:00,0.0,,,,,,,,,,,,,,,,,,0.11,-272.71,-272.77,1,1006,6,17.0,39.4,3.0,17.0,39.7,3.2,5.73,2.08,-5.6,16.3
2015-06-09 00:39:00,0.0,,,,,,,,,,,,,,,,,,0.11,-272.72,-272.76,2,1006,6,17.0,40.2,3.4,17.0,40.3,3.4,5.73,2.11,-5.6,16.6
2015-06-09 00:40:00,0.0,,,,,,,,,,,,,,,,,,0.11,-272.72,-272.78,3,1007,6,17.1,40.5,3.5,17.1,40.9,3.7,5.73,1.93,-4.6,17.0
2015-06-09 00:41:00,0.0,,,,,,,,,,,,,,,,,,0.11,-272.72,-272.78,2,1008,6,17.2,40.6,3.6,17.2,41.1,3.8,5.73,1.86,-4.2,17.4
2015-06-09 00:42:00,0.0,,,,,,,,,,,,,,,,,,0.11,-272.72,-272.79,1,1008,6,17.2,40.6,3.7,17.2,41.2,3.9,5.73,1.90,-4.3,17.7
2015-06-09 00:43:00,0.0,,,,,,,,,,,,,,,,,,0.11,-272.73,-272.79,1,1008,6,17.2,40.7,3.7,17.2,41.3,4.0,5.73,1.96,-4.4,18.1
2015-06-09 00:44:00,0.0,,,,,,,,,,,,,,,,,,0.11,-272.73,-272.79,2,1008,6,17.3,41.2,3.9,17.3,41.7,4.1,5.73,1.97,-4.4,18.4
2015-06-09 00:45:00,0.0,,,,,,,,,,,,,,,,,,0.11,-272.73,-272.79,1,1008,6,17.3,40.5,3.7,17.3,41.6,4.1,5.73,1.97,-4.4,18.8
2015-06-09 00:46:00,0.0,,,,,,,,,,,,,,,,,,0.10,-272.74,-272.80,1,1008,6,17.3,39.9,3.5,17.3,40.9,3.9,5.73,1.97,-4.4,19.1
2015-06-09 00:47:00,0.0,,,,,,,,,,,,,,,,,,0.10,-272.73,-272.82,1,1009,5,17.4,38.2,3.0,17.3,40.1,3.6,5.73,2.01,-4.4,19.4
2015-06-09 00:48:00,0.0,,,,,,,,,,,,,,,,,,0.10,-272.73,-272.80,2,1009,5,17.4,33.5,1.2,17.4,35.4,1.9,5.73,2.05,-4.4,19.7
2015-06-09 00:49:00,0.0,,,,,,,,,,,,,,,,,,0.10,-272.73,-272.80,1,1009,5,17.4,31.7,0.4,17.4,32.8,0.9,5.73,2.02,-4.4,20.0
2015-06-09 00:50:00,0.0,,,,,,,,,,,,,,,,,,0.10,-272.75,-272.80,2,1008,5,17.5,31.0,0.2,17.4,31.7,0.4,5.73,1.87,-4.4,20.2
2015-06-09 00:51:00,0.0,,,,,,,,,,,,,,,,,,0.10,-272.74,-272.80,1,1008,5,17.5,31.9,0.6,17.5,32.5,0.8,5.73,1.92,-4.3,20.5
2015-06-09 00:52:00,0.0,,,,,,,,,,,,,,,,,,0.10,-272.74,-272.79,1,1008,5,17.6,30.2,-0.1,17.5,31.2,0.3,5.73,2.11,-4.3,20.7
2015-06-09 00:53:00,0.0,,,,,,,,,,,,,,,,,,0.10,-272.74,-272.80,2,1007,5,17.6,29.6,-0.3,17.5,30.3,-0.1,5.73,1.84,-4.2,21.0
2015-06-09 00:54:00,0.0,,,,,,,,,,,,,,,,,,0.10,-272.74,-272.80,1,1007,5,17.7,29.8,-0.2,17.6,30.4,-0.0,5.73,2.06,-4.2,21.2
2015-06-09 00:55:00,0.0,,,,,,,,,,,,,,,,,,0.10,-272.73,-272.79,1,1006,5,17.7,30.2,-0.0,17.6,30.7,0.2,5.73,1.90,-4.1,21.4
2015-06-09 00:56:00,0.0,,,,,,,,,,,,,,,,,,0.10,-272.74,-272.80,1,993,5,17.8,29.8,-0.1,17.7,30.7,0.2,5.73,2.08,-4.1,21.6
2015-06-09 00:57:00,0.0,,,,,,,,,,,,,,,,,,0.10,-272.74,-272.81,1,973,5,17.8,29.5,-0.2,17.7,30.2,-0.0,5.73,1.90,-4.1,21.8
2015-06-09 00:58:00,0.0,,,,,,,,,,,,,,,,,,0.10,-272.73,-272.80,1,973,5,17.9,29.7,-0.1,17.8,30.6,0.2,5.73,2.01,-4.0,22.0
2015-06-09 00:59:00,0.0,,,,,,,,,,,,,,,,,,0.10,-272.74,-272.80,1,973,4,17.9,29.4,-0.2,17.8,30.2,0.1,5.73,2.09,-4.0,22.2
2015-06-09 01:00:00,3.0,,,,,,,,,,,,,,,,,,0.10,-272.75,-272.81,2,498,4,18.0,29.6,-0.0,17.9,30.4,0.2,5.73,1.98,-3.9,22.4
2015-06-09 01:01:00,3.0,,,,,,,,,,,,,,,,,,0.10,-272.74,-272.81,1,498,4,18.1,29.3,-0.1,17.9,30.2,0.2,5.73,1.89,-3.9,22.6
2015-06-09 01:02:00,3.0,,,,,,,,,,,,,,,,,,0.10,-272.73,-272.80,2,498,4,18.1,28.8,-0.3,18.0,29.7,0.0,5.73,2.02,-3.8,22.7
2015-06-09 01:03:00,3.0,,,,,,,,,,,,,,,,,,0.10,-272.74,-272.81,2,498,4,18.2,28.8,-0.2,18.0,29.6,0.0,5.73,2.04,-3.8,22.9
2015-06-09 01:04:00,3.0,1.87383,0.00026,397.396,0.078,0.0203,0.0025,140.002,44.839,30764.36935,1.87787,397.498,30.096,45.082,45.050,0.00,0.10,-272.74,-272.80,1,498,4,18.3,28.9,-0.1,18.1,29.7,0.1,5.73,1.97,-3.7,23.1
2015-06-09 01:05:00,3.0,1.87386,0.00061,397.306,0.054,0.0164,0.0020,140.005,44.891,30844.80046,1.87413,397.384,30.371,45.123,45.073,0.00,0.10,-272.74,-272.79,1,497,4,18.4,28.5,-0.2,18.1,29.5,0.1,5.73,1.91,-3.7,23.2
2015-06-09 01:06:00,3.0,1.87366,0.00035,397.287,0.040,0.0135,0.0028,140.003,44.913,30898.43533,1.87396,397.351,30.668,45.137,45.074,0.00,0.10,-272.74,-272.80,1,497,4,18.4,28.4,-0.2,18.2,29.3,0.0,5.73,1.93,-3.6,23.4
2015-06-09 01:07:00,3.0,1.87348,0.00031,397.358,0.035,0.0110,0.0024,140.003,44.914,30930.83328,1.87365,397.409,30.959,45.132,45.063,0.00,0.10,-272.75,-272.80,2,497,4,18.5,28.4,-0.2,18.3,29.3,0.1,5.73,1.97,-3.6,23.5
2015-06-09 01:08:00,3.0,1.87372,0.00025,397.529,0.070,0.0082,0.0022,139.998,44.912,30944.91211,1.87388,397.563,31.223,45.119,45.047,0.00,0.10,-272.73,-272.80,2,497,4,18.6,28.1,-0.2,18.3,29.1,0.1,5.73,1.99,-3.5,23.6
2015-06-09 01:09:00,3.0,1.87391,0.00044,397.590,0.052,0.0081,0.0024,140.000,44.912,30952.01319,1.87402,397.628,31.460,45.105,45.031,0.00,0.10,-272.73,-272.80,1,497,3,18.7,27.8,-0.3,18.4,28.8,-0.0,5.73,1.99,-3.4,23.8
2015-06-09 01:10:00,3.0,1.87375,0.00038,397.604,0.025,0.0059,0.0022,139.999,44.916,30952.91813,1.87390,397.633,31.670,45.090,45.018,0.00,0.10,-272.74,-272.80,1,497,3,18.8,27.9,-0.2,18.5,28.9,0.1,5.73,1.99,-3.4,23.9
2015-06-09 01:11:00,3.0,1.87409,0.00033,397.633,0.032,0.0056,0.0021,139.999,44.924,30950.73657,1.87421,397.660,31.836,45.079,45.008,0.00,0.10,-272.74,-272.80,1,497,3,18.9,27.5,-0.3,18.6,28.7,0.1,5.73,1.99,-3.3,24.1
2015-06-09 01:12:00,3.0,1.87438,0.00035,397.603,0.028,0.0063,0.0016,140.000,44.935,30951.78055,1.87450,397.635,32.001,45.071,45.001,0.00,0.10,-272.73,-272.79,1,497,3,19.0,27.2,-0.3,18.7,28.2,-0.1,5.73,1.98,-3.3,24.2
2015-06-09 01:13:00,3.0,1.87445,0.00023,397.592,0.036,0.0049,0.0026,139.999,44.948,30954.13424,1.87451,397.616,32.150,45.066,44.997,0.00,0.10,-272.74,-272.80,2,496,3,19.1,27.7,-0.0,18.7,28.6,0.2,5.73,1.98,-3.2,24.3
2015-06-09 01:14:00,3.0,1.87423,0.00042,397.541,0.031,0.0034,0.0021,140.003,44.961,30963.61688,1.87433,397.558,32.269,45.063,44.995,0.00,0.10,-272.74,-272.80,2,496,3,19.2,27.6,0.0,18.8,28.7,0.3,5.73,1.97,-3.2,24.4
2015-06-09 01:15:00,3.0,1.87402,0.00042,397.523,0.030,0.0045,0.0019,140.000,44.971,30973.42233,1.87413,397.545,32.349,45.062,44.995,0.00,0.10,-272.74,-272.80,2,496,3,19.3,27.6,0.1,18.9,28.7,0.3,5.73,1.97,-3.1,24.6
2015-06-09 01:16:00,3.0,1.87435,0.00031,397.504,0.037,0.0034,0.0016,139.999,44.979,30981.78942,1.87436,397.518,32.419,45.062,44.995,0.00,0.10,-272.73,-272.80,2,496,3,19.3,27.4,0.1,19.0,28.7,0.4,5.73,1.95,-3.1,24.7
2015-06-09 01:17:00,3.0,1.87416,0.00028,397.498,0.034,0.0025,0.0017,140.001,44.984,30992.29704,1.87424,397.513,32.529,45.063,44.996,0.00,0.10,-272.74,-272.80,2,496,3,19.5,27.1,-0.0,19.1,28.3,0.3,5.73,1.95,-3.1,24.8
2015-06-09 01:18:00,3.0,1.87452,0.00026,397.487,0.027,0.0038,0.0018,139.998,44.988,30998.81732,1.87457,397.506,32.631,45.064,44.998,0.00,0.10,-272.74,-272.79,2,496,2,19.5,26.2,-0.4,19.2,27.4,-0.1,5.73,1.93,-3.0,24.9
2015-06-09 01:19:00,3.0,1.87464,0.00051,397.500,0.036,0.0025,0.0018,139.999,44.991,31005.32483,1.87466,397.511,32.722,45.065,44.998,0.00,0.10,-272.72,-272.80,1,496,2,19.6,26.3,-0.2,19.2,27.4,-0.0,5.73,1.93,-3.0,25.1
2015-06-09 01:20:00,3.0,1.87494,0.00032,397.519,0.015,0.0028,0.0024,140.001,44.994,31011.62662,1.87494,397.531,32.823,45.066,44.999,0.00,0.10,-272.74,-272.79,2,495,2,19.7,26.7,0.0,19.3,27.7,0.2,5.73,1.94,-2.9,25.2
2015-06-09 01:21:00,3.0,1.87497,0.00037,397.524,0.032,0.0041,0.0025,140.003,44.995,31020.06411,1.87510,397.545,32.910,45.066,44.999,0.00,0.10,-272.73,-272.79,2,495,2,19.8,27.0,0.3,19.4,28.1,0.5,5.73,1.98,-2.9,25.3
2015-06-09 01:22:00,3.0,1.87515,0.00040,397.503,0.024,0.0032,0.0020,140.003,44.997,31027.79254,1.87517,397.518,32.999,45.066,45.000,0.00,0.10,-272.73,-272.79,2,495,2,19.9,26.5,0.1,19.5,27.8,0.4,5.73,2.01,-2.8,25.4
2015-06-09 01:23:00,3.0,1.87487,0.00029,397.470,0.042,0.0028,0.0023,140.000,44.998,31035.09282,1.87492,397.486,33.089,45.067,45.000,0.00,0.10,-272.73,-272.80,2,495,2,20.1,26.2,0.1,19.6,27.4,0.3,5.73,2.00,-2.8,25.5
2015-06-09 01:24:00,3.0,1.87508,0.00028,397.472,0.031,0.0010,0.0020,140.003,44.999,31041.14741,1.87513,397.476,33.182,45.067,45.000,0.00,0.10,-272.73,-272.80,2,495,2,20.2,26.1,0.1,19.7,27.3,0.3,5.73,1.93,-2.8,25.6
2015-06-09 01:25:00,2.0,1.85177,0.01524,390.778,2.952,0.0219,0.0187,140.056,44.999,31612.30246,1.85390,391.113,33.280,45.067,45.000,0.00,0.10,-272.72,-272.80,2,580,2,20.3,26.0,0.1,19.8,27.2,0.3,5.73,1.93,-2.7,25.7
2015-06-09 01:26:00,2.0,1.84506,0.00032,389.486,0.023,0.0166,0.0013,140.002,45.000,31640.67063,1.84536,389.562,33.379,45.067,45.000,0.00,0.10,-272.73,-272.80,2,581,2,20.4,26.0,0.2,19.9,27.2,0.4,5.73,1.94,-2.7,25.8
2015-06-09 01:27:00,2.0,1.84488,0.00018,389.471,0.034,0.0150,0.0024,140.000,45.000,31663.42513,1.84516,389.545,33.472,45.067,45.000,0.00,0.10,-272.74,-272.80,1,582,2,20.5,25.7,0.1,20.0,27.0,0.4,5.73,2.02,-2.7,25.9
2015-06-09 01:28:00,2.0,1.84497,0.00037,389.490,0.018,0.0117,0.0013,140.001,45.001,31678.77203,1.84518,389.542,33.578,45.067,45.000,0.00,0.10,-272.72,-272.78,2,582,1,20.6,25.3,-0.0,20.1,26.5,0.2,5.73,1.93,-2.7,26.0
2015-06-09 01:29:00,2.0,1.84485,0.00023,389.512,0.033,0.0086,0.0017,140.000,45.001,31694.06172,1.84502,389.553,33.661,45.067,45.000,0.00,0.10,-272.73,-272.80,3,582,1,20.6,25.3,0.1,20.2,26.5,0.3,5.73,1.85,-2.7,26.1
2015-06-09 01:30:00,2.0,1.84534,0.00040,389.534,0.029,0.0072,0.0022,140.002,45.001,31706.79227,1.84547,389.569,33.762,45.067,45.000,0.00,0.10,-272.75,-272.80,2,582,1,20.8,24.9,-0.0,20.3,26.2,0.2,5.73,2.00,-2.6,26.2
2015-06-09 01:31:00,2.0,1.84483,0.00034,389.504,0.030,0.0049,0.0020,140.000,45.001,31720.04331,1.84493,389.527,33.856,45.067,45.000,0.00,0.10,-272.74,-272.80,2,582,1,20.9,24.6,-0.1,20.4,25.8,0.1,5.73,1.95,-2.6,26.4
2015-06-09 01:32:00,2.0,1.84490,0.00027,389.534,0.034,0.0041,0.0021,140.000,45.001,31729.25277,1.84496,389.554,33.949,45.067,45.000,0.00,0.10,-272.73,-272.79,3,582,1,21.0,24.5,-0.1,20.4,25.6,0.1,5.73,1.83,-2.6,26.5
2015-06-09 01:33:00,2.0,1.84512,0.00025,389.519,0.030,0.0038,0.0026,140.003,45.002,31738.18909,1.84516,389.536,34.040,45.067,45.001,0.00,0.10,-272.73,-272.79,3,582,1,21.1,24.3,-0.1,20.5,25.5,0.1,5.73,2.00,-2.6,26.6
2015-06-09 01:34:00,2.0,1.84520,0.00045,389.517,0.032,0.0033,0.0018,140.001,45.002,31747.09449,1.84523,389.534,34.132,45.067,45.001,0.00,0.10,-272.73,-272.80,2,582,1,21.2,24.2,-0.1,20.6,25.3,0.0,5.73,1.92,-2.5,26.6
2015-06-09 01:35:00,2.0,1.84547,0.00055,389.554,0.036,0.0026,0.0018,140.001,45.002,31752.13925,1.84553,389.564,34.225,45.067,45.001,0.00,0.10,-272.73,-272.79,2,582,1,21.2,24.1,-0.1,20.7,25.2,0.1,5.73,1.84,-2.5,26.8
2015-06-09 01:36:00,2.0,1.84531,0.00035,389.553,0.031,0.0017,0.0020,139.998,45.002,31757.62024,1.84536,389.562,34.313,45.067,45.001,0.00,0.10,-272.73,-272.79,3,582,0,21.3,23.6,-0.3,20.8,24.8,-0.0,5.73,2.00,-2.5,26.8
2015-06-09 01:37:00,2.0,1.84548,0.00046,389.553,0.027,0.0012,0.0017,140.001,45.002,31763.84353,1.84551,389.557,34.407,45.067,45.000,0.00,0.10,-272.73,-272.80,3,582,0,21.4,23.5,-0.3,20.9,24.6,-0.1,5.73,1.80,-2.5,26.9
2015-06-09 01:38:00,2.0,1.84569,0.00035,389.562,0.026,0.0015,0.0015,140.000,45.002,31770.24839,1.84572,389.569,34.488,45.067,45.001,0.00,0.10,-272.73,-272.80,3,582,0,21.5,23.6,-0.2,21.0,24.5,-0.1,5.73,1.99,-2.5,27.0
2015-06-09 01:39:00,2.0,1.84555,0.00032,389.557,0.041,0.0006,0.0012,139.998,45.002,31773.85947,1.84555,389.562,34.569,45.067,45.000,0.00,0.10,-272.72,-272.79,3,582,0,21.6,23.5,-0.1,21.0,24.6,0.0,5.73,1.83,-2.4,27.1
2015-06-09 01:40:00,2.0,1.84574,0.00021,389.567,0.032,0.0013,0.0022,140.000,45.002,31777.01854,1.84575,389.570,34.656,45.067,45.001,0.00,0.10,-272.73,-272.79,3,581,-0,21.7,23.6,-0.0,21.1,24.5,0.1,5.73,1.94,-2.4,27.2
2015-06-09 01:41:00,2.0,1.84582,0.00038,389.559,0.033,0.0018,0.0017,139.999,45.002,31783.47445,1.84586,389.568,34.729,45.067,45.001,0.00,0.10,-272.73,-272.80,4,581,-0,21.8,23.3,-0.1,21.2,24.3,0.0,5.73,1.81,-2.4,27.3
2015-06-09 01:42:00,2.0,1.84562,0.00035,389.560,0.026,0.0015,0.0013,140.001,45.002,31789.57895,1.84567,389.569,34.806,45.067,45.001,0.00,0.10,-272.73,-272.78,3,581,-0,21.9,23.2,-0.1,21.3,24.1,0.0,5.73,1.94,-2.4,27.3
2015-06-09 01:43:00,2.0,1.84556,0.00023,389.562,0.030,0.0011,0.0016,139.999,45.002,31792.65318,1.84556,389.567,34.876,45.067,45.001,0.00,0.10,-272.73,-272.79,4,581,-0,22.0,23.0,-0.1,21.4,24.0,-0.0,5.73,1.78,-2.4,27.4
2015-06-09 01:44:00,2.0,1.84574,0.00029,389.581,0.047,0.0005,0.0023,139.999,45.002,31797.94793,1.84573,389.584,34.943,45.067,45.001,0.00,0.10,-272.74,-272.80,4,581,-0,22.0,22.8,-0.2,21.5,23.8,-0.0,5.73,1.95,-2.3,27.5
2015-06-09 01:45:00,2.0,1.84544,0.00031,389.573,0.030,0.0009,0.0012,140.001,45.002,31803.45761,1.84547,389.576,35.006,45.067,45.001,0.00,0.10,-272.73,-272.79,5,581,-0,22.1,22.2,-0.5,21.6,23.3,-0.3,5.73,1.73,-2.3,27.6
2015-06-09 01:46:00,2.0,1.84542,0.00040,389.593,0.026,0.0017,0.0018,140.000,45.002,31807.69993,1.84546,389.601,35.068,45.067,45.001,0.00,0.10,-272.73,-272.79,4,581,-1,22.2,21.8,-0.7,21.7,22.8,-0.5,5.73,1.94,-2.3,27.7
2015-06-09 01:47:00,2.0,1.84547,0.00041,389.585,0.030,0.0004,0.0021,140.003,45.002,31810.08177,1.84545,389.584,35.136,45.067,45.001,0.00,0.10,-272.73,-272.79,4,580,-0,22.3,21.8,-0.6,21.8,22.7,-0.5,5.73,1.72,-2.3,27.8
2015-06-09 01:48:00,2.0,1.84570,0.00040,389.592,0.031,0.0002,0.0021,140.001,45.002,31812.39240,1.84574,389.594,35.201,45.067,45.001,0.00,0.10,-272.73,-272.79,5,581,-1,22.4,21.7,-0.5,21.9,22.6,-0.5,5.73,1.83,-2.3,27.9
2015-06-09 01:49:00,2.0,1.84561,0.00033,389.594,0.026,0.0014,0.0022,140.001,45.002,31815.56852,1.84560,389.601,35.261,45.067,45.001,0.00,0.10,-272.73,-272.78,6,579,1,22.5,21.5,-0.6,21.9,22.4,-0.5,5.73,1.85,-2.2,28.0
2015-06-09 01:50:00,4.0,1.77653,0.02687,372.440,8.192,0.0054,0.0059,139.945,45.001,31399.99226,1.78121,373.073,35.323,45.067,45.001,0.00,0.10,-272.72,-272.79,5,509,-1,22.5,21.4,-0.6,22.0,22.2,-0.5,5.73,1.69,-2.2,28.1
2015-06-09 01:51:00,4.0,1.76341,0.00026,367.700,0.035,0.0022,0.0012,140.000,45.001,31406.20357,1.76346,367.709,35.384,45.067,45.001,0.00,0.10,-272.73,-272.79,6,513,-1,22.6,21.4,-0.6,22.1,22.2,-0.5,5.73,1.89,-2.2,28.1
2015-06-09 01:52:00,4.0,1.76350,0.00031,367.759,0.023,0.0024,0.0010,139.999,45.001,31406.78115,1.76349,367.768,35.444,45.067,45.001,0.00,0.10,-272.72,-272.79,5,514,-1,22.7,21.3,-0.6,22.1,22.1,-0.5,5.73,1.70,-2.2,28.2
2015-06-09 01:53:00,4.0,1.76354,0.00031,367.759,0.029,0.0028,0.0020,139.998,45.001,31413.31758,1.76366,367.772,35.504,45.067,45.000,0.00,0.10,-272.72,-272.79,5,515,-2,22.7,21.3,-0.6,22.2,22.0,-0.5,5.73,1.75,-2.2,28.2
2015-06-09 01:54:00,4.0,1.76333,0.00020,367.680,0.023,0.0034,0.0011,140.002,45.001,31414.66500,1.76336,367.697,35.562,45.067,45.000,0.00,0.10,-272.73,-272.79,5,515,-2,22.8,21.4,-0.5,22.3,22.1,-0.4,5.73,1.84,-2.2,28.3
2015-06-09 01:55:00,4.0,1.76338,0.00031,367.691,0.017,0.0029,0.0015,139.999,45.001,31414.27060,1.76346,367.702,35.619,45.067,45.001,0.00,0.10,-272.72,-272.79,5,515,-2,22.8,21.2,-0.6,22.4,22.0,-0.4,5.73,1.66,-2.2,28.4
2015-06-09 01:56:00,4.0,1.76302,0.00026,367.693,0.032,0.0030,0.0016,140.000,45.001,31409.32798,1.76305,367.708,35.679,45.067,45.001,0.00,0.10,-272.73,-272.79,6,514,-2,22.9,21.0,-0.6,22.4,21.8,-0.5,5.73,1.78,-2.1,28.4
2015-06-09 01:57:00,4.0,1.76347,0.00032,367.695,0.025,0.0024,0.0017,140.002,45.001,31402.12088,1.76352,367.705,35.738,45.067,45.001,0.00,0.10,-272.73,-272.79,5,513,-2,22.9,21.0,-0.6,22.5,21.7,-0.5,5.73,1.79,-2.1,28.5
2015-06-09 01:58:00,4.0,1.76339,0.00043,367.684,0.031,0.0022,0.0015,140.001,45.001,31397.02868,1.76341,367.694,35.796,45.067,45.001,0.00,0.10,-272.73,-272.79,6,513,-2,23.0,20.9,-0.6,22.6,21.6,-0.5,5.73,1.65,-2.1,28.6
2015-06-09 01:59:00,4.0,1.76326,0.00034,367.699,0.033,0.0016,0.0016,139.998,45.001,31393.73006,1.76329,367.704,35.858,45.067,45.001,0.00,0.10,-272.72,-272.78,6,512,-2,23.0,20.9,-0.6,22.6,21.5,-0.5,5.73,1.83,-2.1,28.6
2015-06-09 02:00:00,4.0,1.76368,0.00031,367.712,0.031,0.0010,0.0022,139.998,45.001,31389.18013,1.76368,367.716,35.895,45.067,45.001,0.00,0.10,-272.73,-272.79,5,511,-2,23.1,20.7,-0.6,22.7,21.4,-0.5,5.73,1.74,-2.0,28.7
2015-06-09 02:01:00,4.0,1.76378,0.00025,367.706,0.033,0.0018,0.0014,140.002,45.001,31387.32822,1.76380,367.716,35.948,45.067,45.001,0.00,0.10,-272.72,-272.78,6,511,-2,23.2,20.5,-0.7,22.7,21.2,-0.6,5.73,1.67,-2.0,28.7
2015-06-09 02:02:00,4.0,1.76347,0.00023,367.685,0.023,0.0012,0.0016,139.998,45.001,31386.94928,1.76350,367.690,36.000,45.067,45.001,0.00,0.10,-272.72,-272.78,5,511,-3,23.2,20.4,-0.7,22.8,21.1,-0.6,5.73,1.81,-2.0,28.8
2015-06-09 02:03:00,4.0,1.76352,0.00033,367.702,0.027,0.0011,0.0018,140.001,45.001,31384.71301,1.76352,367.707,36.043,45.067,45.001,0.00,0.10,-272.72,-272.78,6,510,-3,23.2,20.3,-0.8,22.9,21.0,-0.6,5.73,1.67,-2.0,28.9
2015-06-09 02:04:00,4.0,1.76336,0.00030,367.696,0.033,0.0005,0.0018,139.998,45.001,31385.51014,1.76340,367.699,36.093,45.067,45.001,0.00,0.10,-272.72,-272.79,5,510,-3,23.3,20.3,-0.7,22.9,20.9,-0.6,5.73,1.65,-2.0,29.0
2015-06-09 02:05:00,4.0,1.76344,0.00026,367.685,0.033,0.0004,0.0017,139.999,45.001,31385.29739,1.76343,367.685,36.143,45.067,45.001,0.00,0.10,-272.72,-272.79,5,510,-3,23.4,20.2,-0.7,23.0,20.8,-0.6,5.73,1.81,-2.0,29.0
2015-06-09 02:06:00,4.0,1.76350,0.00030,367.704,0.021,0.0010,0.0022,139.999,45.001,31383.94958,1.76353,367.709,36.197,45.067,45.000,0.00,0.10,-272.72,-272.79,6,510,-3,23.4,20.2,-0.7,23.1,20.8,-0.6,5.73,1.67,-1.9,29.0
2015-06-09 02:07:00,4.0,1.76340,0.00030,367.699,0.027,0.0013,0.0018,139.998,45.001,31384.94355,1.76344,367.705,36.254,45.066,45.000,0.00,0.10,-272.72,-272.79,5,510,-3,23.5,20.3,-0.6,23.1,20.7,-0.6,5.73,1.66,-1.9,29.1
2015-06-09 02:08:00,4.0,1.76340,0.00029,367.702,0.022,0.0005,0.0026,139.998,45.001,31385.15989,1.76341,367.704,36.307,45.066,45.000,0.00,0.10,-272.72,-272.79,6,509,-3,23.5,20.4,-0.5,23.2,20.8,-0.5,5.73,1.80,-1.9,29.2
2015-06-09 02:09:00,4.0,1.76368,0.00031,367.704,0.026,0.0014,0.0017,139.998,45.001,31383.53685,1.76370,367.710,36.351,45.066,45.000,0.00,0.10,-272.72,-272.78,5,509,-3,23.6,20.4,-0.4,23.2,20.8,-0.4,5.73,1.65,-1.9,29.2
2015-06-09 02:10:00,4.0,1.76378,0.00037,367.691,0.024,0.0008,0.0018,140.000,45.001,31387.03779,1.76376,367.694,36.387,45.066,45.000,0.00,0.10,-272.72,-272.79,5,509,-3,23.6,20.3,-0.4,23.3,20.8,-0.4,5.73,1.65,-1.9,29.3
2015-06-09 02:11:00,4.0,1.76362,0.00024,367.687,0.023,0.0018,0.0019,140.004,45.001,31390.76271,1.76369,367.696,36.441,45.066,45.000,0.00,0.10,-272.73,-272.79,6,509,-4,23.7,20.3,-0.4,23.4,20.8,-0.4,5.73,1.80,-1.9,29.3
2015-06-09 02:12:00,4.0,1.76325,0.00041,367.703,0.019,-0.0009,0.0017,140.000,45.001,31389.58546,1.76322,367.697,36.490,45.066,45.001,0.00,0.10,-272.73,-272.78,5,509,-4,23.7,20.2,-0.4,23.4,20.7,-0.4,5.73,1.65,-1.8,29.4
2015-06-09 02:13:00,4.0,1.76346,0.00030,367.703,0.023,0.0000,0.0017,140.000,45.001,31389.72778,1.76346,367.702,36.519,45.066,45.000,0.00,0.10,-272.72,-272.78,5,509,-4,23.8,20.0,-0.5,23.5,20.6,-0.4,5.73,1.63,-1.8,29.4
2015-06-09 02:14:00,4.0,1.76341,0.00028,367.701,0.030,0.0004,0.0019,140.002,45.001,31390.27426,1.76344,367.705,36.563,45.066,45.000,0.00,0.10,-272.73,-272.79,5,509,-4,23.8,19.9,-0.6,23.5,20.4,-0.5,5.73,1.78,-1.8,29.5
2015-06-09 02:15:00,1.0,1.81836,0.01691,381.588,5.131,0.0222,0.0244,140.004,45.001,31907.60126,1.81540,381.244,36.596,45.066,45.000,0.00,0.10,-272.73,-272.78,4,593,-4,23.9,19.9,-0.5,23.6,20.3,-0.5,5.73,1.75,-1.8,29.5
2015-06-09 02:16:00,1.0,1.82467,0.00050,384.213,0.059,0.0125,0.0016,140.000,45.001,31921.03857,1.82489,384.265,36.625,45.066,45.001,0.00,0.10,-272.71,-272.78,5,590,-4,23.9,19.8,-0.6,23.6,20.3,-0.5,5.73,1.63,-1.8,29.6
2015-06-09 02:17:00,1.0,1.82457,0.00044,384.292,0.033,0.0100,0.0023,140.003,45.000,31924.79910,1.82478,384.341,36.623,45.066,45.000,0.00,0.10,-272.72,-272.78,5,589,-4,23.9,19.7,-0.6,23.7,20.2,-0.5,5.73,1.78,-1.7,29.7
2015-06-09 02:18:00,1.0,1.82441,0.00029,384.301,0.055,0.0097,0.0021,140.001,45.000,31924.79678,1.82457,384.341,36.571,45.065,44.999,0.00,0.10,-272.72,-272.79,5,588,-4,24.0,19.5,-0.8,23.7,20.0,-0.6,5.73,1.63,-1.7,29.7
2015-06-09 02:19:00,1.0,1.82475,0.00040,384.343,0.035,0.0052,0.0023,140.001,44.999,31922.62673,1.82485,384.365,36.500,45.065,44.998,0.00,0.10,-272.72,-272.79,5,588,-4,24.0,19.4,-0.8,23.7,19.8,-0.7,5.73,1.67,-1.7,29.8
2015-06-09 02:20:00,1.0,1.82475,0.00028,384.336,0.030,0.0056,0.0021,139.997,44.999,31918.92109,1.82481,384.365,36.413,45.064,44.998,0.00,0.10,-272.72,-272.78,5,587,-4,23.9,19.6,-0.7,23.7,19.8,-0.7,5.73,1.75,-1.7,29.7
2015-06-09 02:21:00,1.0,1.82457,0.00031,384.347,0.040,0.0032,0.0015,139.999,44.998,31918.12232,1.82463,384.360,36.283,45.063,44.997,0.00,0.10,-272.72,-272.79,5,587,-4,23.9,19.7,-0.6,23.7,19.9,-0.6,5.73,1.60,-1.7,29.6
2015-06-09 02:22:00,1.0,1.82492,0.00023,384.360,0.032,0.0022,0.0022,139.998,44.997,31911.07900,1.82496,384.373,36.141,45.063,44.997,0.00,0.10,-272.72,-272.79,5,587,-5,23.9,19.7,-0.6,23.7,20.0,-0.6,5.73,1.79,-1.7,29.6
2015-06-09 02:23:00,1.0,1.82463,0.00027,384.387,0.027,0.0035,0.0013,139.998,44.997,31905.61925,1.82472,384.400,35.990,45.063,44.997,0.00,0.10,-272.71,-272.78,4,587,-5,23.9,19.7,-0.7,23.7,20.0,-0.6,5.73,1.58,-1.7,29.6
2015-06-09 02:24:00,1.0,1.82493,0.00024,384.376,0.024,0.0011,0.0013,139.999,44.997,31897.03146,1.82492,384.383,35.836,45.063,44.997,0.00,0.10,-272.73,-272.79,5,586,-5,23.9,19.8,-0.6,23.7,19.9,-0.6,5.73,1.78,-1.7,29.6
2015-06-09 02:25:00,1.0,1.82514,0.00021,384.396,0.037,0.0011,0.0020,140.001,44.996,31887.89083,1.82514,384.400,35.673,45.063,44.997,0.00,0.10,-272.72,-272.79,4,586,-5,23.9,19.9,-0.5,23.7,20.0,-0.6,5.73,1.60,-1.8,29.5
2015-06-09 02:26:00,1.0,1.82533,0.00034,384.368,0.032,0.0011,0.0017,140.000,44.996,31879.12578,1.82536,384.374,35.495,45.063,44.998,0.00,0.10,-272.72,-272.77,5,586,-5,23.9,19.9,-0.5,23.6,20.1,-0.6,5.73,1.74,-1.7,29.3
2015-06-09 02:27:00,1.0,1.82493,0.00036,384.388,0.032,0.0015,0.0020,139.999,44.996,31872.33935,1.82495,384.394,35.320,45.064,44.998,0.00,0.10,-272.72,-272.79,4,586,-5,23.9,20.0,-0.4,23.7,20.1,-0.5,5.73,1.72,-1.7,29.1
2015-06-09 02:28:00,1.0,1.82496,0.00037,384.370,0.036,-0.0006,0.0012,139.998,44.996,31861.06475,1.82497,384.368,35.146,45.064,44.998,0.00,0.10,-272.72,-272.79,3,586,-5,23.9,20.0,-0.4,23.7,20.2,-0.5,5.73,1.67,-1.7,28.9
2015-06-09 02:29:00,1.0,1.82495,0.00032,384.369,0.024,0.0007,0.0016,140.000,44.996,31851.57500,1.82496,384.374,34.963,45.064,44.998,0.00,0.10,-272.72,-272.78,3,586,-5,23.9,20.1,-0.3,23.7,20.2,-0.4,5.73,1.84,-1.7,28.8
2015-06-09 02:30:00,1.0,1.82486,0.00031,384.376,0.014,-0.0000,0.0016,139.996,44.996,31840.95730,1.82485,384.374,34.775,45.064,44.998,0.00,0.10,-272.72,-272.78,2,585,-5,23.9,20.2,-0.3,23.7,20.4,-0.3,5.73,1.76,-1.7,28.7
2015-06-09 02:31:00,1.0,1.82502,0.00034,384.392,0.017,0.0001,0.0015,140.000,44.996,31830.56837,1.82503,384.391,34.589,45.064,44.998,0.00,0.10,-272.72,-272.78,1,585,-5,23.9,20.0,-0.4,23.7,20.4,-0.3,5.73,1.72,-1.7,28.7
2015-06-09 02:32:00,1.0,1.82515,0.00041,384.392,0.036,0.0007,0.0021,139.998,44.997,31818.23691,1.82516,384.396,34.403,45.064,44.998,0.00,0.10,-272.72,-272.79,0,585,-5,23.9,20.0,-0.4,23.7,20.4,-0.4,5.73,1.84,-1.7,28.6
2015-06-09 02:33:00,1.0,1.82499,0.00023,384.369,0.038,0.0000,0.0015,139.999,44.997,31808.95180,1.82500,384.369,34.210,45.064,44.998,0.00,0.10,-272.72,-272.78,-2,585,-5,23.9,20.1,-0.3,23.7,20.5,-0.3,5.73,1.89,-1.7,28.5
2015-06-09 02:34:00,1.0,1.82525,0.00034,384.363,0.027,0.0002,0.0013,140.000,44.996,31797.86880,1.82522,384.364,34.019,45.065,44.998,0.00,0.10,-272.72,-272.79,-2,585,-5,23.9,20.3,-0.2,23.7,20.6,-0.2,5.73,1.89,-1.7,28.4
2015-06-09 02:35:00,1.0,1.82517,0.00041,384.394,0.023,-0.0003,0.0016,140.000,44.996,31786.51474,1.82519,384.393,33.812,45.065,44.998,0.00,0.10,-272.72,-272.79,-3,585,-5,23.9,20.3,-0.2,23.7,20.8,-0.1,5.73,1.89,-1.7,28.4
2015-06-09 02:36:00,1.0,1.82511,0.00035,384.376,0.033,0.0004,0.0021,140.001,44.997,31775.85171,1.82508,384.376,33.606,45.065,44.998,0.00,0.10,-272.71,-272.79,-4,584,-5,23.9,20.1,-0.4,23.6,20.7,-0.2,5.73,1.90,-1.7,28.4